Regional Weather Roundup
Issued by NWS

Home | Current Version | Previous Version | Graphics & Text | Print | Product List | Glossary On
Versions: 1 2 3 4 5 6 7 8 9 10 11 12 13 14 15 16 17 18 19 20 21 22 23 24 25 26 27 28 29 30 31 32 33 34 35 36 37 38 39 40 41 42 43 44 45 46 47 48 49 50
000
ASUS45 KBOU 300407
RWRCO

WEATHER ROUNDUP FOR COLORADO
NATIONAL WEATHER SERVICE DENVER/BOULDER CO
1000 PM MDT FRI JUL 29 2016

NOTE: "FAIR" INDICATES FEW OR NO CLOUDS BELOW 12000 FEET WITH NO
SIGNIFICANT WEATHER AND/OR OBSTRUCTIONS TO VISIBILITY.

COZ001>005-013-030-031-300500-
...NORTHWEST COLORADO...

CITY           SKY/WX    TMP DP  RH WIND       PRES   REMARKS
CRAIG          FAIR      64  41  42 S5        30.09R
HAYDEN         FAIR      72  36  26 NE3       30.12R
MEEKER         FAIR      67  41  38 NE7       30.12R
MOUNT WERNER   NOT AVBL
STEAMBOAT SPGS FAIR      70  38  31 CALM      30.15R
WALDEN         FAIR      66  32  28 CALM      30.27R
$$

COZ006>008-011-300500-
...WEST CENTRAL VALLEYS...

CITY           SKY/WX    TMP DP  RH WIND       PRES   REMARKS
GRAND JUNCTION FAIR      80  37  21 NE6       29.97R
MONTROSE       FAIR      78  38  23 SE9       30.09R
EAGLE          FAIR      70  37  30 N3        30.16R
RIFLE          FAIR      77  36  22 SE9       30.04R
DELTA          NOT AVBL
NUCLA          NOT AVBL
$$

COZ017>023-064>068-300500-
...SOUTHWEST COLORADO...

CITY           SKY/WX    TMP DP  RH WIND       PRES   REMARKS
DURANGO        FAIR      75  42  30 SE8       30.18R
CORTEZ         FAIR      73  40  30 NE5       30.07R
PAGOSA SPRINGS FAIR      73  32  22 CALM      30.29R
TELLURIDE      FAIR      68  32  26 S6        30.42R
WOLF CREEK PAS FAIR      54  32  43 SW18      30.66R
$$

COZ009-010-012-014-032>034-037-058>063-300500-
...CENTRAL COLORADO...

CITY           SKY/WX    TMP DP  RH WIND       PRES   REMARKS
ASPEN          FAIR      61  38  42 S7        30.25R
BUENA VISTA    FAIR      67  50  55 S14       30.30R
COPPER MTN     FAIR      59  28  31 W9        30.63R
BERTHOUD PASS  CLOUDY    45  32  61 MISG      30.66R
COTTONWOOD PAS FAIR      63  46  55 CALM      30.45R
GUNNISON       FAIR      70  32  24 N3        30.28R
KREMMLING      FAIR      64  32  29 E8        30.22S
LEADVILLE      FAIR      58  28  32 CALM      30.43R
MONARCH PASS   FAIR      50  46  87 MISG      30.74R
SALIDA         FAIR      69  53  56 SE17G26   30.35R
SUNLIGHT       FAIR      61  32  33 MISG      30.55R
WILKERSON PASS FAIR      52  43  71 CALM      30.60R
$$

COZ069>075-300500-
...SAN LUIS VALLEY/SANGRE DE CRISTO MOUNTAINS...

CITY           SKY/WX    TMP DP  RH WIND       PRES   REMARKS
ALAMOSA        FAIR      68  40  35 SE14      30.25R
LA VETA PASS   CLOUDY    54  50  87 NE12      30.50S
SAGUACHE       FAIR      68  46  45 S7        30.29R
$$

COZ035-036-038>040-300500-
...NORTHERN COLORADO FRONT RANGE...

CITY           SKY/WX    TMP DP  RH WIND       PRES   REMARKS
DENVER INTL AP MOCLDY    72  57  59 SE16      30.14R THUNDER
DMNS CITY PARK   N/A     74  55  50 S14       30.12R
AURORA         MOCLDY    72  56  57 S17       30.15R
FRONT RANGE AP NOT AVBL
ERIE MUNI ARPT FAIR      71  58  64 CALM      30.11R
BOULDER MUN AP FAIR      70  55  60 N7        30.13R
CENTENNIAL     MOCLDY    71  54  54 S16       30.16R
BROOMFIELD     MOCLDY    70  57  64 W20       30.15
LONGMONT       NOT AVBL
$$

COZ041-046-047-076>085-087-088-300500-
...PIKES PEAK/PALMER DIVIDE AND SOUTHERN FOOTHILLS...

CITY           SKY/WX    TMP DP  RH WIND       PRES   REMARKS
COLO. SPRINGS  FAIR      68  58  70 SE8       30.25R
A. F. ACADEMY  FAIR      65  55  68 SE9       30.24R
SCHRIEVER AFB  NOT AVBL
ELLICOTT       NOT AVBL
FALCON         NOT AVBL
FORT CARSON    NOT AVBL
LIMON          MOCLDY    66  60  81 SE10      30.22R
MONUMENT HILL  FAIR      61  54  77 S8        30.29R
TRINIDAD       NOT AVBL
$$

COZ042>045-048>051-090-091-300500-
...NORTHEAST COLORADO...

CITY           SKY/WX    TMP DP  RH WIND       PRES   REMARKS
GREELEY ARPT   MOCLDY    66  61  82 SE12      30.10F THUNDER
AKRON          FAIR      69  61  75 SE16      30.15R
BURLINGTON     FAIR      68  61  78 SE8       30.14R
WRAY           NOT AVBL
STERLING       NOT AVBL
HOLYOKE        NOT AVBL
FORT MORGAN    NOT AVBL
$$

COZ086-089-092>099-300500-
...SOUTHEAST COLORADO...

CITY           SKY/WX    TMP DP  RH WIND       PRES   REMARKS
PUEBLO         MOCLDY    77  61  57 E18       30.11R
LA JUNTA       FAIR      75  62  64 E16       30.09R
LAMAR          FAIR      71  66  84 E7        30.08R
SPRINGFIELD      N/A     67  62  84 E5        30.11S
$$



USA.gov is the U.S. government's official web portal to all federal, state and local government web resources and services.